Find Starlink 4275

NORAD ID: 53008 Int'l Des: 2022-076 Owner: SPXS Country: US Constellation: starlink operational
LEOCIRCULAR

リアルタイム位置

3D地球を読み込み中...

Starlink 4275について

説明を読み込み中...

次回通過

Passes for default location (London). Set your location on the main map for personalized predictions.

高度履歴

Loading altitude history...

軌道要素

1 53008U 22076Y 26104.88958847 -.00000402 00000-0 -71711-5 0 9993
2 53008 53.2167 291.6040 0001342 85.8998 274.2148 15.08840179208316
Epoch: Apr 14, 2026 • Age: 9 hours

現在のステータス

高度 558.2 km
速度 7.58 km/s
衛星直下点 -50.74°S, 77.4°W
打ち上げ日 Jul 7, 2022
運用期間 3.7 years
タイプ internet

技術仕様

分類 Payload
質量 297.00 kg
乾燥質量 275.00 kg
総質量 297.00 kg
長さ 0.20 m
直径 2.80 m
スパン 9.00 m
形状 Box + pan
製造者 SPXS
バスタイプ Starlink
フェーズステータス In Orbit
所有者/国 SPXS/US

Most Searched